[[{"header":{"parameterUnit":"m.s-1","parameterCategory":1,"la1":30.2991,"la2":30.254,"lo1":-89.0895,"lo2":-89.0444,"dy":0.0017,"dx":0.0017,"nx":28,"ny":28,"refTime":"2024-03-14T09:00:00:Z","depth":0,"parameterNumber":2,"parameterNumberName":"U-component_of_WINDS"},"data":[0,0,0,0,0,0,0,0,0,0,0,0,0,0,0,0,0,0,0,0,0,0,0,0,0,0,0,0,0,0,0,0,0,0,0,0,0,0,0,0,0,0,0,0,0,0,0,0,0,0,0,0,0,0,0,0,0,0,-1.6763,-1.6763,0,-1.6787,-1.6788,-1.6788,-1.6775,-1.6774,-1.6773,-1.6773,-1.68,-1.6801,-1.6802,0,0,0,0,0,0,0,0,0,0,0,0,0,-1.6706,-1.6707,-1.6763,-1.6763,-1.6763,-1.6787,-1.6788,-1.6788,-1.6775,-1.6774,-1.6773,-1.6772,-1.6799,-1.6801,-1.6802,0,0,0,0,0,0,0,0,0,0,0,0,0,-1.6731,-1.6708,-1.6763,-1.676,-1.676,-1.6787,-1.6788,-1.6788,-1.6775,-1.6774,-1.6773,-1.6772,-1.6799,-1.68,-1.6802,-1.6835,0,0,-1.6809,-1.681,0,0,0,0,0,0,0,0,-1.673,-1.6733,-1.676,-1.676,-1.676,-1.6777,-1.6778,-1.6804,-1.6775,-1.6769,-1.6773,-1.6771,-1.6793,-1.6795,-1.6802,-1.6837,-1.6838,-1.6809,-1.681,-1.6811,-1.6812,0,0,0,0,0,0,0,-1.6728,-1.6732,-1.6773,-1.676,-1.676,-1.6758,-1.676,-1.6783,-1.6786,-1.677,-1.6769,-1.6772,-1.6793,-1.68,-1.6803,-1.6838,-1.6809,-1.6811,-1.6812,-1.6813,-1.69,-1.6901,0,0,0,0,0,0,-1.6726,-1.6731,-1.6772,-1.6773,-1.6742,-1.6759,-1.6762,-1.6772,-1.6786,-1.6787,-1.6772,-1.6771,-1.6797,-1.68,-1.6804,-1.6842,-1.6811,-1.6813,-1.6814,-1.6899,-1.69,-1.6902,0,0,0,0,0,0,-1.6725,-1.673,-1.6771,-1.6752,-1.6757,-1.6761,-1.6773,-1.6773,-1.6781,-1.6788,-1.6789,-1.6779,-1.6797,-1.6801,-1.6827,-1.6843,-1.6814,-1.6816,-1.6898,-1.6899,-1.6901,-1.692,0,0,0,0,0,0,-1.6723,-1.673,-1.6742,-1.6752,-1.6758,-1.6794,-1.6774,-1.6775,-1.6784,-1.6782,-1.6795,-1.6796,-1.6796,-1.6824,-1.6829,-1.6845,-1.6817,-1.6896,-1.6898,-1.69,-1.6918,-1.6922,-1.6926,0,0,0,0,0,-1.6721,-1.6747,-1.6742,-1.6747,-1.6773,-1.6794,-1.6798,-1.6797,-1.6786,-1.6798,-1.6803,-1.6796,-1.6841,-1.6827,-1.6833,-1.6849,-1.6895,-1.6898,-1.69,-1.6916,-1.6921,-1.6926,0,0,0,0,0,0,-1.6738,-1.6748,-1.6743,-1.6772,-1.6783,-1.6792,-1.6808,-1.6802,-1.6816,-1.6814,-1.6813,-1.6816,-1.6843,-1.6849,-1.6834,-1.6882,-1.6866,-1.687,-1.6877,-1.6881,-1.6885,-1.6883,-1.6819,0,0,0,0,0,-1.6746,-1.6762,-1.6769,-1.6794,-1.68,-1.6803,-1.6812,-1.6811,-1.6821,-1.6826,-1.6833,-1.6844,-1.6861,-1.6872,-1.6887,-1.6919,-1.6921,-1.6934,-1.6937,-1.694,-1.6943,-1.696,-1.6965,-1.691,-1.691,-1.691,0,0,-1.6761,-1.6768,-1.6778,-1.6798,-1.6806,-1.6823,-1.6807,-1.6826,-1.6838,-1.6829,-1.6854,-1.6859,-1.6872,-1.6901,-1.6914,-1.6907,-1.6959,-1.6944,-1.6946,-1.6947,-1.6963,-1.6968,-1.6973,-1.6911,-1.6911,-1.6911,0,0,-1.6796,-1.6803,-1.6824,-1.6833,-1.6844,-1.6846,-1.6851,-1.6862,-1.6865,-1.689,-1.6883,-1.6899,-1.6927,-1.6936,-1.6945,-1.6984,-1.6978,-1.6989,-1.7009,-1.7025,-1.703,-1.7033,-1.7047,-1.7052,-1.6992,-1.6992,-1.6993,0,-1.6813,-1.6838,-1.6836,-1.6855,-1.6864,-1.6856,-1.6878,-1.6886,-1.6903,-1.6909,-1.6901,-1.6936,-1.6944,-1.6975,-1.6985,-1.6992,-1.6998,-1.6987,-1.7029,-1.7033,-1.7037,-1.7049,-1.7054,-1.6994,-1.6994,-1.6993,-1.6993,0,-1.6858,-1.6876,-1.6892,-1.6907,-1.6918,-1.6938,-1.694,-1.6951,-1.6949,-1.6952,-1.6977,-1.6987,-1.7004,-1.7012,-1.701,-1.7042,-1.7037,-1.7029,-1.7013,-1.7043,-1.7055,-1.706,-1.6995,-1.6995,-1.6995,-1.6994,0,0,-1.6905,-1.6918,-1.6924,-1.6931,-1.6943,-1.6957,-1.6977,-1.6993,-1.7003,-1.7015,-1.7032,-1.7056,-1.7049,-1.7058,-1.7058,-1.7072,-1.7102,-1.7062,-1.7062,-1.7068,-1.7137,-1.7142,-1.7148,-1.7098,-1.7099,-1.71,-1.7136,0,-1.694,-1.6974,-1.6974,-1.7006,-1.7022,-1.7014,-1.7032,-1.7042,-1.7045,-1.706,-1.7064,-1.7081,-1.707,-1.7076,-1.709,-1.7095,-1.7115,-1.7093,-1.7114,-1.7114,-1.7109,-1.7154,-1.716,-1.7193,-1.714,-1.7141,-1.7142,0,-1.6986,-1.6999,-1.7032,-1.7041,-1.7048,-1.7064,-1.7078,-1.7092,-1.7104,-1.7105,-1.7116,-1.7113,-1.7134,-1.7118,-1.7147,-1.7132,-1.7141,-1.7144,-1.7146,-1.7147,-1.7129,-1.7155,-1.7204,-1.7208,-1.7149,-1.7149,-1.7148,0,-1.7016,-1.7041,-1.7064,-1.707,-1.7082,-1.7093,-1.7099,-1.7109,-1.7118,-1.7132,-1.7138,-1.7154,-1.7162,-1.7175,-1.7176,-1.7165,-1.7205,-1.719,-1.7207,-1.7207,-1.7215,-1.7214,-1.7264,-1.7222,-1.7222,-1.7222,-1.7222,0,-1.7055,-1.7075,-1.7077,-1.7091,-1.7114,-1.7113,-1.7136,-1.7141,-1.715,-1.7165,-1.716,-1.7175,-1.7177,-1.7192,-1.7193,-1.7217,-1.7221,-1.7223,-1.7223,-1.7222,-1.7222,-1.7227,-1.7225,-1.7223,-1.7223,-1.7223,-1.7223,0,-1.7091,-1.7093,-1.7117,-1.7126,-1.7129,-1.7146,-1.7154,-1.7167,-1.7171,-1.719,-1.7194,-1.72,-1.7217,-1.722,-1.7241,-1.7242,-1.727,-1.7268,-1.7266,-1.7265,-1.7281,-1.7279,-1.7336,-1.7343,-1.7297,-1.7298,-1.7298,0,-1.7115,-1.7131,-1.7141,-1.7151,-1.7157,-1.7172,-1.7182,-1.7182,-1.7192,-1.7206,-1.7218,-1.7235,-1.7248,-1.7277,-1.7283,-1.7299,-1.7297,-1.7315,-1.7299,-1.7298,-1.7296,-1.7294,-1.7296,-1.7318,-1.7319,-1.7319,-1.7319,0,-1.7158,-1.7158,-1.7172,-1.7186,-1.7197,-1.7208,-1.7219,-1.7227,-1.7229,-1.724,-1.7258,-1.7268,-1.7289,-1.7306,-1.7322,-1.7328,-1.7324,-1.7325,-1.7329,-1.7328,-1.7326,-1.7327,-1.7273,-1.7323,-1.7323,-1.7322,-1.7322,-1.7322,-1.7189,-1.7202,-1.7211,-1.7226,-1.7234,-1.7244,-1.7256,-1.7261,-1.7275,-1.7291,-1.7291,-1.731,-1.7321,-1.7342,-1.735,-1.7365,-1.7359,-1.7366,-1.7367,-1.7369,-1.737,-1.7324,-1.7368,-1.7368,-1.7368,-1.7368,-1.7368,0,-1.723,-1.7236,-1.725,-1.7264,-1.7276,-1.727,-1.7282,-1.7292,-1.7309,-1.7319,-1.7332,-1.7352,-1.7368,-1.7376,-1.7392,-1.7402,-1.7401,-1.7407,-1.7405,-1.7407,-1.7375,-1.7368,-1.7408,-1.7407,-1.7407,-1.7407,-1.7407,-1.7407,-1.7253,-1.7275,-1.7276,-1.7301,-1.7307,-1.7324,-1.7331,-1.7341,-1.7349,-1.7371,-1.7384,-1.7388,-1.7397,-1.7414,-1.7429,-1.7431,-1.7436,-1.7443,-1.7444,-1.7413,-1.7409,-1.7405,-1.7399,-1.7444,-1.7444,-1.7474,-1.7475,-1.7475]},{"header":{"parameterUnit":"m.s-1","parameterCategory":1,"la1":30.2991,"la2":30.254,"lo1":-89.0895,"lo2":-89.0444,"dy":0.0017,"dx":0.0017,"nx":28,"ny":28,"refTime":"2024-03-14T09:00:00:Z","depth":0,"parameterNumber":3,"parameterNumberName":"V-component_of_WINDS"},"data":[0,0,0,0,0,0,0,0,0,0,0,0,0,0,0,0,0,0,0,0,0,0,0,0,0,0,0,0,0,0,0,0,0,0,0,0,0,0,0,0,0,0,0,0,0,0,0,0,0,0,0,0,0,0,0,0,0,0,1.697,1.6971,0,1.7035,1.7036,1.7037,1.7038,1.7037,1.7036,1.7036,1.7103,1.7106,1.7108,0,0,0,0,0,0,0,0,0,0,0,0,0,1.6849,1.6851,1.697,1.6971,1.6972,1.7035,1.7036,1.7037,1.7038,1.7037,1.7036,1.7035,1.7102,1.7105,1.7109,0,0,0,0,0,0,0,0,0,0,0,0,0,1.6907,1.6852,1.697,1.698,1.6982,1.7035,1.7036,1.7037,1.7038,1.7037,1.7036,1.7035,1.7101,1.7105,1.7109,1.7157,0,0,1.7121,1.7122,0,0,0,0,0,0,0,0,1.6903,1.6911,1.6978,1.6979,1.6981,1.7027,1.7018,1.7078,1.7039,1.7017,1.7036,1.7034,1.7079,1.7085,1.71,1.716,1.7163,1.7121,1.7123,1.7125,1.7126,0,0,0,0,0,0,0,1.6899,1.6908,1.6996,1.6979,1.6981,1.6982,1.6989,1.7029,1.7054,1.7019,1.7019,1.7026,1.708,1.7096,1.7101,1.7164,1.7121,1.7124,1.7127,1.7128,1.7269,1.727,0,0,0,0,0,0,1.6893,1.6905,1.6994,1.6998,1.6938,1.6985,1.6993,1.7014,1.7054,1.7058,1.7027,1.7026,1.709,1.7097,1.7104,1.7163,1.7125,1.7129,1.7131,1.7268,1.7269,1.7271,0,0,0,0,0,0,1.689,1.6901,1.6991,1.6952,1.6963,1.6988,1.7012,1.7016,1.7032,1.706,1.7065,1.7039,1.7089,1.7098,1.7144,1.7166,1.713,1.7134,1.7266,1.7268,1.727,1.7283,0,0,0,0,0,0,1.6887,1.69,1.6918,1.6952,1.6965,1.703,1.7013,1.7018,1.7038,1.7037,1.7073,1.7077,1.7089,1.7138,1.7148,1.717,1.7137,1.7264,1.7267,1.727,1.7281,1.7285,1.7289,0,0,0,0,0,1.6883,1.6919,1.6919,1.693,1.6988,1.7032,1.7039,1.7052,1.704,1.7059,1.7077,1.7076,1.7162,1.7143,1.7154,1.7178,1.7263,1.7266,1.7269,1.7279,1.7284,1.7289,0,0,0,0,0,0,1.6888,1.6924,1.6924,1.6973,1.6999,1.7032,1.7056,1.7057,1.7087,1.7085,1.71,1.7108,1.7154,1.717,1.7149,1.7227,1.7211,1.7217,1.7215,1.722,1.7224,1.7219,1.714,0,0,0,0,0,1.6894,1.6926,1.6956,1.6996,1.7009,1.703,1.7049,1.7057,1.7085,1.7096,1.7118,1.7145,1.7179,1.72,1.7232,1.7283,1.7291,1.7305,1.7309,1.7313,1.7317,1.7346,1.7353,1.7282,1.7282,1.7281,0,0,1.6909,1.6932,1.6951,1.6998,1.7019,1.7052,1.704,1.7075,1.71,1.7102,1.7146,1.7163,1.7195,1.7244,1.7266,1.7259,1.7339,1.7317,1.7319,1.7322,1.735,1.7357,1.7363,1.7284,1.7283,1.7283,0,0,1.6952,1.6972,1.7008,1.703,1.7062,1.7076,1.7085,1.7117,1.7129,1.7174,1.7176,1.7206,1.7263,1.7286,1.7305,1.7357,1.7358,1.7367,1.7389,1.7417,1.7423,1.7428,1.7447,1.7454,1.7372,1.7372,1.7372,0,1.6965,1.7015,1.7027,1.7062,1.7083,1.7086,1.7123,1.7143,1.7185,1.7199,1.719,1.7262,1.7284,1.7338,1.7351,1.7366,1.7377,1.7363,1.7421,1.7426,1.7431,1.745,1.7457,1.7373,1.7373,1.7373,1.7373,0,1.703,1.7065,1.709,1.7129,1.7153,1.7189,1.7207,1.7229,1.7235,1.725,1.7296,1.7322,1.736,1.7374,1.7379,1.7429,1.7424,1.7418,1.7402,1.7439,1.7457,1.7464,1.7374,1.7374,1.7374,1.7373,0,0,1.7078,1.7124,1.7133,1.7152,1.7188,1.7215,1.7251,1.7288,1.7307,1.7336,1.7367,1.7416,1.7411,1.7432,1.7441,1.7465,1.7506,1.7457,1.7458,1.7465,1.7564,1.7568,1.7576,1.7506,1.7508,1.7509,1.7561,0,1.7125,1.719,1.7202,1.7258,1.7291,1.7294,1.7326,1.7352,1.7368,1.7398,1.7414,1.7449,1.7439,1.7452,1.7477,1.7496,1.7526,1.7492,1.7536,1.7538,1.7529,1.7585,1.759,1.7638,1.7568,1.7569,1.757,0,1.7189,1.7219,1.7278,1.7311,1.7325,1.7353,1.7388,1.7417,1.7447,1.7456,1.7481,1.7486,1.7525,1.7508,1.7562,1.7538,1.7557,1.757,1.7572,1.7577,1.7556,1.7592,1.7653,1.7661,1.7581,1.758,1.7579,0,1.7219,1.7274,1.7317,1.7332,1.7371,1.7391,1.7408,1.7437,1.7459,1.7489,1.7504,1.7539,1.7558,1.7585,1.7601,1.7586,1.7654,1.7637,1.7664,1.7663,1.7678,1.7677,1.7743,1.7689,1.7689,1.7689,1.7689,0,1.727,1.7307,1.7331,1.7357,1.7398,1.7412,1.7453,1.747,1.7496,1.7526,1.7531,1.756,1.7578,1.761,1.7622,1.7666,1.7674,1.7683,1.7686,1.7683,1.7682,1.7696,1.7693,1.7691,1.7691,1.769,1.769,0,1.7311,1.7328,1.7375,1.7408,1.7417,1.7446,1.7474,1.7501,1.7516,1.7554,1.7564,1.7588,1.7626,1.7644,1.769,1.7698,1.7748,1.7748,1.7738,1.7739,1.7764,1.7762,1.7842,1.7854,1.7792,1.7792,1.7793,0,1.7343,1.7371,1.7407,1.7427,1.7445,1.7478,1.75,1.7515,1.7538,1.7574,1.7596,1.7634,1.7664,1.7724,1.7746,1.7782,1.7783,1.7809,1.7789,1.7785,1.7785,1.7783,1.7786,1.7813,1.7814,1.7814,1.7815,0,1.7398,1.7405,1.7436,1.7471,1.7497,1.7525,1.7552,1.7569,1.7589,1.7614,1.7652,1.7676,1.7724,1.7761,1.7798,1.7817,1.7819,1.7821,1.7829,1.7826,1.7819,1.7824,1.7748,1.7819,1.7818,1.7818,1.7818,1.7818,1.7436,1.7461,1.749,1.7525,1.7547,1.7573,1.7599,1.7618,1.765,1.7689,1.7696,1.7737,1.7767,1.7817,1.7837,1.7869,1.7864,1.7875,1.7878,1.7881,1.7883,1.7813,1.7876,1.7876,1.7876,1.7876,1.7876,0,1.7492,1.7511,1.7543,1.7581,1.7608,1.7608,1.7639,1.7662,1.7697,1.7725,1.7755,1.7799,1.7836,1.7861,1.7898,1.7919,1.7921,1.7928,1.7927,1.7932,1.7885,1.7875,1.7926,1.7926,1.7926,1.7926,1.7926,1.7926,1.7524,1.7567,1.7578,1.7633,1.7652,1.7691,1.7709,1.7733,1.7755,1.7804,1.7834,1.785,1.7877,1.7916,1.795,1.7956,1.797,1.7977,1.7984,1.794,1.7935,1.793,1.792,1.798,1.798,1.8028,1.8028,1.8028]}]]